Погода в Сент-Олбансе

Великобритания     51°45′02″N   0°20′23″E
темп.,
°C
ветер,
м/с
пор.,
м/с
влажн.,
%
обл.,
%
осадки,
мм/ч
давл.,
гПа
погр.,
м
29 мая, вс
вс2901:00+6ссв388814 0.1 1023177
04:00+4с38935 0.0 1022167
07:00+7ссз47826 0.0 1021255
10:00+12с5860100 0.0 10201491
13:00+12с566171 0.4 10191312
16:00+13с666489 0.6 10181382
19:00+11ссв467096 0.8 1017835
22:00+6св36847 0.0 1018119
30 мая, пн
пн3001:00+4ссв22885 0.0 101732
04:00+4ссз018643 0.0 101612
07:00+7юз0174100 0.0 1016117
10:00+11ююз2256100 0.0 10151021
13:00+14юз2345100 0.0 10141926
16:00+14ююз556296 0.4 10131198
19:00+12ююз478199 2.3 1013634
22:00+10ююз378890 0.8 1014251
31 мая, вт
вт3101:00+8ююз3792100 0.8 1014230
04:00+7ююз3693100 0.0 1014155
07:00+9юз369093 0.3 1014284
10:00+13зюз45605 0.0 10141075
13:00+16зюз454859 0.0 10132024
16:00+16з6758100 0.2 10131554
19:00+12з5108352 2.0 1013485
22:00+9з38927 0.3 1015167
1 июня, ср
ср101:00+7зсз49920 0.3 1016186
04:00+5зсз499259 0.0 1017192
07:00+8зсз498440 0.0 1018281
10:00+13сз56635 0.0 1018979
13:00+16сз455287 0.1 10191870
16:00+16ссз345299 0.0 10191565
19:00+15с126579 0.0 1020428
22:00+12сз00709 0.0 102110
2 июня, чт
чт201:00+9св11820 0.0 102210
04:00+8ююв01855 0.0 102110
07:00+11ююв11785 0.0 1022100
10:00+16юв225983 0.0 10221061
13:00+19в224615 0.0 10201841
16:00+20в4445100 0.0 10181854
19:00+16вюв5764100 0.0 1018585
22:00+12вюв366999 0.0 1018172